FW7499 Weather Reports


time (UTC)temp
F
wind
direction
speed
knots
gust
knots
rain 1hr
in
rain 24hr
in
rain mn
in
humidity
%
barometer
mb
20260903195008 95 230 1.7 8.7 0.00 0.02 0.02 52 1009.1
20260903194512 94 75 2.6 8.7 0.00 0.02 0.02 55 1009.1
20260903194004 94 209 1.7 9.6 0.00 0.02 0.02 55 1009.1
20260903193509 94 245 2.6 9.6 0.00 0.02 0.02 55 1009.3
20260903193009 93 204 1.7 5.2 0.00 0.02 0.02 56 1009.4
20260903192511 93 165 0.9 5.2 0.00 0.02 0.02 56 1009.4
20260903192003 94 211 2.6 7.0 0.00 0.02 0.02 57 1009.4
20260903191508 93 150 1.7 7.0 0.00 0.02 0.02 55 1009.5
20260903191012 93 236 0.9 4.3 0.00 0.02 0.02 60 1009.7
20260903190504 93 232 0.9 6.1 0.00 0.02 0.02 57 1009.8
20260903190006 92 189 1.7 6.1 0.00 0.02 0.02 58 1009.9
20260903185503 92 205 1.7 7.8 0.00 0.02 0.02 56 1010.0
20260903185007 91 157 2.6 7.8 0.00 0.02 0.02 56 1009.9
20260903184510 92 65 0.9 5.2 0.00 0.02 0.02 58 1009.9
20260903184009 92 178 0.9 5.2 0.00 0.02 0.02 59 1010.1
20260903183513 91 56 0.9 5.2 0.00 0.02 0.02 58 1010.2
20260903183005 92 306 0.9 3.5 0.00 0.02 0.02 58 1010.2
20260903182511 92 102 0.0 7.8 0.00 0.02 0.02 62 1010.4
20260903182011 91 128 0.9 7.8 0.00 0.02 0.02 60 1010.4
20260903181523 90 141 0.9 4.3 0.00 0.02 0.02 59 1010.4
20260903181003 91 315 1.7 4.3 0.00 0.02 0.02 58 1010.6
20260903180512 90 161 0.9 3.5 0.00 0.02 0.02 57 1010.6
20260903180021 90 294 0.9 4.3 0.00 0.02 0.02 60 1010.7
20260903175510 90 229 1.7 4.3 0.00 0.02 0.02 56 1010.7
20260903175004 90 235 0.9 5.2 0.00 0.02 0.02 61 1010.8
20260903174508 89 285 0.9 5.2 0.00 0.02 0.02 58 1010.8
20260903174004 89 313 0.9 5.2 0.00 0.02 0.02 60 1010.7
20260903173504 89 161 1.7 5.2 0.00 0.02 0.02 59 1010.7
20260903173013 88 246 0.9 5.2 0.00 0.02 0.02 60 1010.8
20260903172511 88 205 0.9 7.0 0.00 0.02 0.02 61 1010.9
20260903172013 88 170 1.7 7.0 0.00 0.02 0.02 62 1011.1
20260903171512 87 108 0.0 4.3 0.00 0.02 0.02 65 1011.0
20260903171011 87 179 1.7 5.2 0.00 0.02 0.02 65 1010.9
20260903170510 86 157 1.7 5.2 0.00 0.02 0.02 67 1011.0
20260903170012 85 130 0.9 3.5 0.00 0.02 0.02 65 1011.1
20260903165515 85 223 1.7 3.5 0.00 0.02 0.02 68 1011.3
20260903165008 84 213 0.9 3.5 0.00 0.02 0.02 68 1011.4
20260903164533 83 187 0.0 1.7 0.00 0.02 0.02 69 1011.4
20260903164008 83 212 0.0 1.7 0.00 0.02 0.02 71 1011.3
20260903163506 82 340 0.9 2.6 0.00 0.02 0.02 74 1011.2
20260903163020 82 102 0.9 2.6 0.00 0.02 0.02 73 1011.1
20260903162506 81 265 0.0 1.7 0.00 0.02 0.02 76 1011.2
20260903162010 81 250 0.9 3.5 0.00 0.02 0.02 75 1011.1
20260903161519 82 92 0.0 3.5 0.00 0.02 0.02 71 1011.1
20260903161010 82 161 0.9 3.5 0.00 0.02 0.02 70 1011.2
20260903160510 82 15 0.0 2.6 0.00 0.02 0.02 70 1011.2
20260903160023 82 294 0.0 3.5 0.00 0.02 0.02 69 1011.2
20260903155507 82 175 0.9 3.5 0.00 0.02 0.02 69 1011.2
20260903155020 82 136 0.9 3.5 0.00 0.02 0.02 70 1011.3
20260903154515 82 140 0.9 3.5 0.00 0.02 0.02 69 1011.3
20260903154013 82 103 0.9 2.6 0.00 0.02 0.02 71 1011.3
20260903153515 82 160 0.0 2.6 0.00 0.02 0.02 71 1011.4
20260903153011 81 137 0.9 3.5 0.00 0.02 0.02 70 1011.4
20260903152507 81 108 1.7 6.1 0.00 0.02 0.02 70 1011.5
20260903152008 81 107 0.9 6.1 0.00 0.02 0.02 69 1011.6
20260903151514 80 95 0.9 5.2 0.00 0.02 0.02 73 1011.6
20260903151010 79 100 2.6 5.2 0.00 0.02 0.02 74 1011.5
20260903150514 80 115 0.9 1.7 0.00 0.02 0.02 77 1011.7
20260903150035 80 300 0.0 1.7 0.00 0.02 0.02 75 1011.7
20260903145508 80 300 0.9 2.6 0.00 0.02 0.02 74 1011.6
20260903145012 80 37 0.0 3.5 0.00 0.02 0.02 73 1011.3
20260903144534 80 92 0.9 3.5 0.00 0.02 0.02 73 1011.2
20260903144020 79 240 0.0 5.2 0.00 0.02 0.02 74 1011.2
20260903143511 79 225 0.0 5.2 0.00 0.02 0.02 75 1011.2
20260903143030 78 103 0.0 1.7 0.00 0.02 0.02 76 1011.2
20260903142513 78 108 0.9 1.7 0.00 0.02 0.02 77 1011.2
20260903142010 78 109 0.0 1.7 0.00 0.02 0.02 75 1011.1
20260903141528 78 121 0.0 1.7 0.00 0.02 0.02 75 1011.1
20260903141008 79 121 0.0 1.7 0.00 0.02 0.02 74 1011.1
20260903140509 79 127 0.0 1.7 0.00 0.02 0.02 74 1011.1
20260903140034 79 109 0.0 1.7 0.00 0.02 0.02 75 1011.0
20260903135513 79 22 0.0 2.6 0.00 0.02 0.02 74 1011.0
20260903135014 79 216 0.0 2.6 0.00 0.02 0.02 79 1011.0
20260903134523 78 127 0.0 1.7 0.00 0.02 0.02 78 1011.0
20260903134014 77 127 0.0 1.7 0.00 0.02 0.02 77 1011.0
20260903133513 77 123 0.0 1.7 0.00 0.02 0.02 77 1011.1
20260903133021 77 123 0.0 1.7 0.00 0.02 0.02 77 1011.2
20260903132510 77 123 0.0 1.7 0.00 0.02 0.02 77 1011.2
20260903132014 77 123 0.0 1.7 0.00 0.02 0.02 77 1011.2
20260903131524 76 145 0.0 2.6 0.00 0.02 0.02 79 1011.3
20260903131015 76 103 0.9 2.6 0.00 0.02 0.02 79 1011.4
20260903130512 76 105 0.0 2.6 0.00 0.02 0.02 80 1011.5
20260903130017 75 33 0.0 1.7 0.00 0.02 0.02 83 1011.4
20260903125511 75 33 0.0 1.7 0.00 0.02 0.02 83 1011.4
20260903125010 75 352 0.0 1.7 0.00 0.02 0.02 84 1011.5
20260903124520 75 352 0.0 0.0 0.00 0.02 0.02 84 1011.6
20260903124013 75 352 0.0 0.0 0.00 0.02 0.02 85 1011.5
20260903123513 75 352 0.0 1.7 0.00 0.02 0.02 84 1011.6
20260903123032 75 352 0.0 1.7 0.00 0.02 0.02 84 1011.6
20260903122515 75 352 0.0 0.0 0.00 0.02 0.02 82 1011.4
20260903122016 75 352 0.0 0.0 0.00 0.02 0.02 84 1011.3
20260903121521 75 352 0.0 1.7 0.00 0.02 0.02 83 1011.2
20260903121014 75 352 0.0 1.7 0.00 0.02 0.02 82 1011.1
20260903120518 75 352 0.0 1.7 0.00 0.02 0.02 82 1011.0
20260903120027 74 352 0.0 0.9 0.00 0.02 0.02 84 1011.0
20260903115512 74 352 0.0 0.9 0.00 0.02 0.02 85 1011.0
20260903115017 74 352 0.0 1.7 0.00 0.02 0.02 84 1011.0
20260903114522 74 9 0.0 1.7 0.00 0.02 0.02 86 1011.0
20260903114011 74 9 0.0 1.7 0.00 0.02 0.02 87 1011.0
20260903113515 73 9 0.0 1.7 0.00 0.02 0.02 87 1010.9
20260903113026 73 9 0.0 1.7 0.00 0.02 0.02 88 1010.9
20260903112515 73 9 0.0 1.7 0.00 0.02 0.02 88 1010.8
20260903112015 73 9 0.0 1.7 0.00 0.02 0.02 89 1010.7
20260903111527 73 9 0.0 1.7 0.00 0.02 0.02 89 1010.6
20260903111004 73 10 0.0 1.7 0.01 0.02 0.02 88 1010.6
20260903110505 73 9 0.0 1.7 0.02 0.02 0.02 88 1010.6
20260903110004 73 10 0.0 1.7 0.02 0.02 0.02 87 1010.7
20260903105504 73 186 0.0 1.7 0.02 0.02 0.02 88 1010.7
20260903105002 73 186 0.0 1.7 0.02 0.02 0.02 87 1010.8
20260903104504 73 186 0.0 1.7 0.02 0.02 0.02 87 1010.9
20260903104004 73 186 0.0 1.7 0.02 0.02 0.02 87 1010.8
20260903103503 73 186 0.0 1.7 0.02 0.02 0.02 86 1010.9
20260903103003 73 186 0.0 0.9 0.02 0.02 0.02 85 1011.0
20260903102503 74 186 0.0 1.7 0.02 0.02 0.02 84 1011.0
20260903102004 75 186 0.0 1.7 0.02 0.02 0.02 81 1011.0
20260903101503 77 186 0.0 1.7 0.02 0.02 0.02 78 1011.0
20260903101007 79 186 0.9 2.6 0.01 0.01 0.01 70 1010.9
20260903100504 80 259 0.9 3.5 0.00 0.00 0.00 64 1011.0
20260903100004 80 254 0.9 3.5 0.00 0.00 0.00 64 1010.8
20260903095505 80 175 0.9 4.3 0.00 0.00 0.00 64 1010.6
20260903095003 80 225 0.9 4.3 0.00 0.00 0.00 64 1010.6
20260903094504 80 232 1.7 5.2 0.00 0.00 0.00 64 1010.5
20260903094005 80 194 0.9 5.2 0.00 0.00 0.00 64 1010.5
20260903093505 80 211 0.9 5.2 0.00 0.00 0.00 64 1010.5
20260903093003 80 186 0.9 3.5 0.00 0.00 0.00 64 1010.6
20260903092503 80 140 1.7 4.3 0.00 0.00 0.00 64 1010.6
20260903092003 80 252 0.9 4.3 0.00 0.00 0.00 64 1010.6
20260903091508 80 188 0.9 4.3 0.00 0.00 0.00 64 1010.6
20260903091004 80 187 0.0 3.5 0.00 0.00 0.00 64 1010.6
20260903090504 80 194 0.0 2.6 0.00 0.00 0.00 64 1010.6
20260903090015 80 144 0.9 2.6 0.00 0.00 0.00 64 1010.6
20260903085503 81 344 0.0 3.5 0.00 0.00 0.00 63 1010.6
20260903085002 81 173 0.9 3.5 0.00 0.00 0.00 63 1010.6
20260903084522 80 211 0.0 4.3 0.00 0.00 0.00 64 1010.6
20260903084005 81 168 0.0 4.3 0.00 0.00 0.00 63 1010.6
20260903083504 81 161 0.9 4.3 0.00 0.00 0.00 63 1010.6
20260903083010 81 173 0.9 3.5 0.00 0.00 0.00 62 1010.6
20260903082504 81 207 0.9 2.6 0.00 0.00 0.00 63 1010.6
20260903082003 81 215 0.9 2.6 0.00 0.00 0.00 62 1010.7
20260903081503 81 191 0.0 2.6 0.00 0.00 0.00 63 1010.6
20260903081004 81 227 0.9 4.3 0.00 0.00 0.00 61 1010.6
20260903080504 81 42 0.9 4.3 0.00 0.00 0.00 61 1010.7
20260903080008 82 144 0.9 3.5 0.00 0.00 0.00 61 1010.7
20260903075505 81 352 0.9 2.6 0.00 0.00 0.00 61 1010.7
20260903075005 81 230 0.0 1.7 0.00 0.00 0.00 62 1010.7
20260903074509 81 342 0.0 3.5 0.00 0.00 0.00 62 1010.6
20260903074006 81 55 0.0 3.5 0.00 0.00 0.00 63 1010.7
20260903073508 81 100 0.0 1.7 0.00 0.00 0.00 63 1010.7
20260903073009 81 159 0.0 1.7 0.00 0.00 0.00 62 1010.7
20260903072505 82 186 0.0 5.2 0.00 0.00 0.00 62 1010.7
20260903072007 82 170 0.9 5.2 0.00 0.00 0.00 62 1010.6
20260903071511 82 241 0.0 3.5 0.00 0.00 0.00 61 1010.7
20260903071003 82 264 0.9 3.5 0.00 0.00 0.00 61 1010.7
20260903070507 82 198 0.0 2.6 0.00 0.00 0.00 62 1010.8
20260903070010 82 174 0.0 7.0 0.00 0.00 0.00 62 1010.7
20260903065506 82 198 0.9 7.0 0.00 0.00 0.00 61 1010.8
20260903065005 82 254 0.9 4.3 0.00 0.00 0.00 61 1010.8
20260903064510 82 214 0.9 4.3 0.00 0.00 0.00 60 1010.7
20260903064006 83 140 1.7 4.3 0.00 0.00 0.00 60 1010.7
20260903063505 83 253 0.9 7.0 0.00 0.00 0.00 60 1010.7
20260903063011 83 186 0.9 7.0 0.00 0.00 0.00 60 1010.7
20260903062507 82 246 0.9 3.5 0.00 0.00 0.00 61 1010.8
20260903062006 83 255 0.9 3.5 0.00 0.00 0.00 60 1010.8
20260903061511 83 330 0.0 3.5 0.00 0.00 0.00 60 1010.7
20260903061008 83 215 0.9 2.6 0.00 0.00 0.00 60 1010.8
20260903060506 83 171 0.9 4.3 0.00 0.00 0.00 60 1010.9
20260903060013 83 234 0.9 4.3 0.00 0.00 0.00 60 1010.9
20260903055508 83 255 0.9 2.6 0.00 0.00 0.00 60 1010.9
20260903055007 83 190 0.0 6.1 0.00 0.00 0.00 60 1010.9
20260903054511 83 225 0.9 6.1 0.00 0.00 0.00 59 1010.8
20260903054008 83 245 0.0 3.5 0.00 0.00 0.00 60 1010.9
20260903053508 83 177 0.0 3.5 0.00 0.00 0.00 60 1010.8
20260903053026 83 257 0.0 7.8 0.00 0.00 0.00 59 1010.8
20260903052507 83 215 1.7 7.8 0.00 0.00 0.00 59 1010.8
20260903052010 84 230 0.9 5.2 0.00 0.00 0.00 58 1010.8
20260903051513 84 200 0.9 5.2 0.00 0.00 0.00 58 1010.7
20260903051010 84 304 0.9 5.2 0.00 0.00 0.00 58 1010.8
20260903050509 84 159 1.7 6.1 0.00 0.00 0.00 57 1010.8
20260903050016 84 195 1.7 4.3 0.00 0.00 0.00 58 1010.8
20260903045510 84 200 1.7 4.3 0.00 0.00 0.00 57 1010.8
20260903045008 84 295 1.7 6.1 0.00 0.00 0.00 58 1010.9
20260903044519 84 110 0.9 6.1 0.00 0.00 0.00 58 1010.9
20260903044011 84 221 0.9 4.3 0.00 0.00 0.00 58 1010.9
20260903043516 84 317 0.0 4.3 0.00 0.00 0.00 57 1010.9
20260903043028 84 213 0.9 5.2 0.00 0.00 0.00 57 1010.9
20260903042510 84 175 0.9 5.2 0.00 0.00 0.00 57 1010.8
20260903042008 84 242 0.9 4.3 0.00 0.00 0.00 58 1010.8
20260903041520 84 207 0.9 5.2 0.00 0.00 0.00 58 1010.8
20260903041010 84 193 0.9 5.2 0.00 0.00 0.00 58 1010.8
20260903040511 84 227 0.9 4.3 0.00 0.00 0.00 58 1010.8
20260903040016 84 131 0.0 4.3 0.00 0.00 0.00 59 1010.8
20260903035510 84 227 0.9 2.6 0.00 0.00 0.00 58 1010.7
20260903035011 84 315 0.9 2.6 0.00 0.00 0.00 58 1010.8
20260903034518 85 253 0.9 7.0 0.00 0.00 0.00 58 1010.7
20260903034010 85 240 1.7 7.0 0.00 0.00 0.00 58 1010.7
20260903033512 85 124 0.9 5.2 0.00 0.00 0.00 57 1010.7
20260903033017 85 177 1.7 5.2 0.00 0.00 0.00 57 1010.7
20260903032515 85 203 0.9 2.6 0.00 0.00 0.00 58 1010.7
20260903032013 85 172 0.9 4.3 0.00 0.00 0.00 57 1010.7
20260903031518 85 229 0.9 4.3 0.00 0.00 0.00 57 1010.7
20260903031009 85 163 0.9 6.1 0.00 0.00 0.00 56 1010.7
20260903030511 86 227 2.6 6.1 0.00 0.00 0.00 56 1010.7
20260903030022 86 172 1.7 6.1 0.00 0.00 0.00 56 1010.8
20260903025512 86 167 0.9 3.5 0.00 0.00 0.00 57 1010.7
20260903025011 86 237 0.0 2.6 0.00 0.00 0.00 56 1010.6
20260903024521 86 202 0.9 5.2 0.00 0.00 0.00 56 1010.6
20260903024012 86 297 0.9 5.2 0.00 0.00 0.00 56 1010.6
20260903023512 86 9 0.9 7.0 0.00 0.00 0.00 56 1010.5
20260903023020 86 229 0.0 7.0 0.00 0.00 0.00 55 1010.5
20260903022513 86 211 0.0 4.3 0.00 0.00 0.00 55 1010.4
20260903022011 86 195 0.9 3.5 0.00 0.00 0.00 56 1010.2
20260903021510 87 209 0.9 3.5 0.00 0.00 0.00 55 1010.3
20260903021007 87 225 0.9 3.5 0.00 0.00 0.00 56 1010.2
20260903020508 87 202 0.9 3.5 0.00 0.00 0.00 56 1010.1
20260903020006 87 155 0.9 3.5 0.00 0.00 0.00 56 1010.0
20260903015507 87 123 0.9 2.6 0.00 0.00 0.00 57 1010.0
20260903015012 87 172 0.9 2.6 0.00 0.00 0.00 58 1009.9
20260903014520 87 175 0.9 2.6 0.00 0.00 0.00 58 1009.9
20260903014012 87 128 0.0 3.5 0.00 0.00 0.00 58 1009.9
20260903013507 87 192 0.0 3.5 0.00 0.00 0.00 58 1009.9
20260903013004 87 218 0.9 3.5 0.00 0.00 0.00 57 1009.9
20260903012504 87 130 0.0 1.7 0.00 0.00 0.00 57 1009.8
20260903012006 88 202 0.0 3.5 0.00 0.00 0.00 57 1009.8
20260903011508 88 146 0.0 3.5 0.00 0.00 0.00 57 1009.8
20260903011008 88 201 0.9 3.5 0.00 0.00 0.00 55 1009.7
20260903010507 88 126 0.0 2.6 0.00 0.00 0.00 56 1009.7
20260903010006 89 179 0.9 2.6 0.00 0.00 0.00 55 1009.8
20260903005508 89 188 0.9 2.6 0.00 0.00 0.00 56 1009.8
20260903005005 89 226 0.9 2.6 0.00 0.00 0.00 55 1009.8
20260903004518 89 217 0.0 1.7 0.00 0.00 0.00 55 1009.8
20260903004010 89 198 0.0 1.7 0.00 0.00 0.00 57 1009.8
20260903003505 89 217 0.0 1.7 0.00 0.00 0.00 55 1009.8
20260903003003 90 144 0.0 3.5 0.00 0.00 0.00 54 1009.8
20260903002508 91 180 0.0 3.5 0.00 0.00 0.00 53 1009.8
20260903002005 91 219 0.9 3.5 0.00 0.00 0.00 53 1009.8
20260903001510 91 123 0.9 3.5 0.00 0.00 0.00 54 1009.8
20260903001003 91 152 0.0 3.5 0.00 0.00 0.00 54 1009.8
20260903000507 92 225 0.9 3.5 0.00 0.00 0.00 53 1009.8
20260903000008 92 222 0.0 3.5 0.00 0.00 0.00 52 1009.8
20260902235504 92 153 0.9 3.5 0.00 0.00 0.00 1009.8
20260902235009 92 204 0.0 2.6 0.00 0.00 0.00 51 1009.9
20260902234515 93 86 0.0 1.7 0.00 0.00 0.00 51 1009.9
20260902234002 93 164 0.0 4.3 0.00 0.00 0.00 50 1009.9
20260902233503 93 169 0.9 4.3 0.00 0.00 0.00 50 1009.9
20260902233012 93 304 0.0 3.5 0.00 0.00 0.00 54 1009.9
20260902232514 93 296 0.0 3.5 0.00 0.00 0.00 53 1009.9
20260902232010 94 144 0.0 4.3 0.00 0.00 0.00 49 1009.9
20260902231512 94 324 0.0 4.3 0.00 0.00 0.00 48 1009.9
20260902231011 94 256 0.9 4.3 0.00 0.00 0.00 48 1010.0
20260902230502 95 223 0.9 4.3 0.00 0.00 0.00 48 1009.9
20260902230009 95 204 0.9 4.3 0.00 0.00 0.00 47 1010.0
20260902225507 95 300 1.7 6.1 0.00 0.00 0.00 47 1010.0
20260902225008 95 308 1.7 6.1 0.00 0.00 0.00 48 1010.0
20260902224514 95 132 1.7 7.8 0.00 0.00 0.00 46 1010.0
20260902224008 95 240 0.9 7.8 0.00 0.00 0.00 47 1010.0
20260902223505 95 331 1.7 7.8 0.00 0.00 0.00 50 1010.0
20260902223019 95 167 1.7 6.1 0.00 0.00 0.00 47 1010.0
20260902222505 96 134 0.9 4.3 0.00 0.00 0.00 47 1010.1
20260902222011 96 18 0.9 6.1 0.00 0.00 0.00 47 1010.0
20260902221530 96 9 1.7 7.8 0.00 0.00 0.00 47 1010.0
20260902221009 96 47 1.7 7.8 0.00 0.00 0.00 47 1010.0
20260902220517 96 137 0.9 9.6 0.00 0.00 0.00 48 1010.1
20260902220028 96 242 2.6 9.6 0.00 0.00 0.00 48 1010.0
20260902215514 96 167 1.7 7.0 0.00 0.00 0.00 48 1010.1
20260902215007 96 30 2.6 7.0 0.00 0.00 0.00 46 1010.1
20260902214512 96 217 1.7 7.0 0.00 0.00 0.00 46 1010.1
20260902214007 96 263 1.7 7.0 0.00 0.00 0.00 47 1010.1
20260902213509 96 258 0.9 5.2 0.00 0.00 0.00 47 1010.1
20260902213014 96 262 0.9 5.2 0.00 0.00 0.00 47 1010.1
20260902212511 96 136 0.9 7.8 0.00 0.00 0.00 49 1010.2
20260902212014 96 215 1.7 7.8 0.00 0.00 0.00 47 1010.1
20260902211512 96 316 1.7 10.4 0.00 0.00 0.00 47 1010.2
20260902211011 96 264 2.6 8.7 0.00 0.00 0.00 45 1010.2
20260902210511 96 301 1.7 10.4 0.00 0.00 0.00 47 1010.2
20260902210047 96 273 1.7 10.4 0.00 0.00 0.00 46 1010.4
20260902205507 96 227 2.6 10.4 0.00 0.00 0.00 47 1010.4
20260902205009 96 251 1.7 7.8 0.00 0.00 0.00 49 1010.4
20260902204533 96 83 1.7 7.8 0.00 0.00 0.00 47 1010.5
20260902204014 96 329 1.7 7.8 0.00 0.00 0.00 47 1010.5
20260902203506 96 223 1.7 10.4 0.00 0.00 0.00 49 1010.6
20260902203012 95 248 3.5 10.4 0.00 0.00 0.00 47 1010.7
20260902202511 95 269 3.5 10.4 0.00 0.00 0.00 47 1010.7
20260902202010 95 98 1.7 9.6 0.00 0.00 0.00 47 1010.7
20260902201524 95 304 2.6 9.6 0.00 0.00 0.00 47 1010.7
20260902201009 95 333 0.9 8.7 0.00 0.00 0.00 47 1010.8
20260902200513 96 336 1.7 9.6 0.00 0.00 0.00 46 1010.7
20260902200016 96 289 1.7 9.6 0.00 0.00 0.00 45 1010.7
20260902195508 95 246 0.9 6.1 0.00 0.00 0.00 48 1010.7